Location: Freiburg+im+Breisgau
(48.0359°N, 7.8195°E)
Time: 12:24:52
(UTC+01:00)

ISS - Pass Details

Date: 11 November 2017
Orbit: 401 x 407 km, 51.6° (Epoch: 25 November)

Event Time Altitude Azimuth Distance (km) Brightness Sun altitude
Exits shadow 06:42:59 11° 292° (WNW) 1,403 -1.8 -8.0°
Maximum altitude 06:46:07 87° 207° (SSW) 407 -3.8 -7.5°
Drops below altitude 10° 06:49:22 10° 115° (ESE) 1,452 0.7 -7.0°
Sets 06:51:27 0° 115° (ESE) 2,309 2.5 -6.7°
